Volver al catálogo

CZ-3C R/B

ActivoHEO
NORAD 41870·ROCKET BODY·🇨🇳 China

Lanzado Nov 22, 2016 desde Xichang Satellite Launch Center

Loading…

Próximos Pases (próximas 24 horas)

TLE

ActualizadoSource: Space-Track

Época: Sep 14, 2026, 15:41 UTC

1 41870U 16072B   26257.65375153  .00000287  00000-0  46445-3 0  9996
2 41870  16.8809  43.4239 5135821 210.8056 105.1193  5.17434707164971

Sigue CZ-3C R/B en tiempo real con AllMySat

Download on the App Store